リニア彗星

228P/LINEAR (2011)

English version
Home page
Updated on March 18, 2012

---------------------------------------------------------------------

・ プロフィール

符号 228P/2009 U2
検出日 2009年10月18日
検出光度 20.9等
検出者 J. V. Scotti (Kitt Peak)

・ 写真集

・ 軌道要素

Epoch 2011 Aug. 27.0 TT = JDT 2455800.5
T 2011 Aug. 23.83976 TT                                 MPC
q   3.4304729            (2000.0)            P               Q
n   0.11577646     Peri.  114.79322     -0.82319989     -0.56328677
a   4.1692301      Node    31.06622     +0.45838704     -0.73325520
e   0.1771927      Incl.    7.91544     +0.33499741     -0.38084750
P   8.51
From 140 observations 2001 Dec. 17-2010 Dec. 8, mean residual 0".6.

・ 光度変化

        m1 = 11.5 + 5 logΔ + 10.0 log r

---------------------------------------------------------------------

軌道要素はM.P.E.C. 2010-Y12に掲載されたものです。
光度グラフはComet for Windowsで作成したものです。

---------------------------------------------------------------------

Copyright(C) Seiichi Yoshida (comet@aerith.net). All rights reserved.